Location: Veytaux
(46.4185°N, 6.9320°E)
Time: 07:24:51
(UTC+00:00)

MSX - Pass Details

Date: 27 May 2022
Orbit: 896 x 905 km, 98.9° (Epoch: 01 July)

Event Time Altitude Azimuth Distance (km) Brightness Sun altitude
Rises 02:17:07 0° 13° (NNE) 3,535 8.2 -12.4°
Reaches altitude 10° 02:19:32 10° 13° (NNE) 2,591 7.3 -12.2°
Maximum altitude 02:25:19 81° 287° (WNW) 920 3.9 -11.5°
Enters shadow 02:30:46 12° 201° (SSW) 2,462 5.5 -10.9°
